Preview of NWS' New Version of Forecast
This preview is not operational and should not be used for support decisions.

Regional Weather Roundup (RWR)

Issued by National Weather Service (NWS)

                            
000
ASUS44 KMEG 210910
RWRTN 
TENNESSEE HOURLY STATE WEATHER ROUNDUP
NATIONAL WEATHER SERVICE MEMPHIS TN
400 AM CDT SUN JUL 21 2019

TNZ002-004-019-021-049-052-054-088>092-211000-
WEST TENNESSEE
  
CITY           SKY/WX    TMP DP  RH WIND       PRES   REMARKS
MEMPHIS INTL   FAIR      76  75  97 S7        29.97S                  
NWS MEMPHIS      N/A     76 N/A N/A MISG        N/A                   
JACKSON        MOCLDY    74  73  97 S5        29.98F                  
DYERSBURG      FAIR      75  74  96 CALM      29.95F                  
SOMERVILLE     PTCLDY    75  73  94 S6        29.97S                  
COVINGTON      CLEAR     75  75 100 S3        29.95F                  
UNION CITY     MOCLDY    75  75 100 S5        29.93S                  
BOLIVAR        CLOUDY    75  73  94 S5        29.97F                  
PARIS          CLOUDY    75  73  94 S8        29.97S                  
HUNTINGDON     CLOUDY    75  73  94 S5        29.97F                  
LEXINGTON      CLOUDY    75  73  94 S6        29.99R                  
SELMER         CLOUDY    75  73  94 S5        29.99S                  
SAVANNAH       CLOUDY    75  73  94 S7G13     30.00S                  
$$

TNZ008-025-027-028-033-062-065-066-211000-
NORTH MIDDLE TENNESSEE
  
CITY           SKY/WX    TMP DP  RH WIND       PRES   REMARKS
NASHVILLE      FAIR      72  69  90 S3        30.01S                  
PORTLAND       CLEAR     72  72 100 S7        29.99S                  
CLARKSVILLE    FAIR      74  71  91 SW7       29.97F                  
LEBANON        PTSUNNY   73  72  94 S5        29.99S                  
SMYRNA         FAIR      72  72 100 CALM      30.02S                  
MURFREESBORO   PTSUNNY   73  72  94 S5        30.00S                  
COOKEVILLE     CLOUDY    72  70  94 W5        30.03R                  
LIVINGSTON     CLOUDY    72  70  94 SW5       30.03S                  
GALLATIN       CLOUDY    72  72 100 CALM      30.03S                  
CROSSVILLE     MOCLDY    70  68  93 W6        30.08S                  
ROCKWOOD       PTSUNNY   72  72 100 VRB5      30.05S FOG              
$$

TNZ061-075-076-078-094-096-097-211000-
SOUTH MIDDLE TENNESSEE
  
CITY           SKY/WX    TMP DP  RH WIND       PRES   REMARKS
LAWRENCEBURG   CLOUDY    73  72  94 VRB3      30.03S                  
LEWISBURG      PTSUNNY   73  73 100 CALM      30.02S                  
FAYETTEVILLE   MOCLDY    73  73 100 SW5       30.04R                  
TULLAHOMA      CLOUDY    73  72  94 SW5       30.03R                  
WINCHESTER     PTCLDY    73  72  94 CALM      30.04R                  
MCMINNVILLE    CLOUDY    72  70  94 CALM      30.04R                  
COLUMBIA       CLOUDY    75  75 100 S3        30.00S FOG              
SHELBYVILLE    CLOUDY    73  73 100 S5        30.02S                  
$$

TNZ017-018-042-046-047-211000-
NORTHEAST TENNESSEE
  
CITY           SKY/WX    TMP DP  RH WIND       PRES   REMARKS
TRI CITIES     MOCLDY    71  70  96 CALM      30.06R FOG              
ELIZABETHTON   MOCLDY    70  68  94 CALM      30.06S                  
GREENEVILLE    SUNNY     72  72 100 CALM      30.05S                  
$$

TNZ012-013-036-069-073-074-211000-
CENTRAL EAST TENNESSEE
  
CITY           SKY/WX    TMP DP  RH WIND       PRES   REMARKS
KNOXVILLE      FAIR      73  72  96 SE6       30.02S                  
OAK RIDGE      CLOUDY    76  72  87 CALM      30.04S                  
DOWNTOWN KNOXV CLOUDY    73  73 100 CALM      30.02F FOG              
GATLINBURG     CLOUDY    72  72 100 CALM      30.02F FOG              
MORRISTOWN     CLEAR     72  72 100 CALM      30.03S                  
JACKSBORO      CLOUDY    73  73 100 NE5       30.06S FOG              
$$

TNZ083-085-099-211000-
SOUTHEAST TENNESSEE
  
CITY           SKY/WX    TMP DP  RH WIND       PRES   REMARKS
CHATTANOOGA    FAIR      75  73  93 S6        30.02S                  
DAYTON         CLOUDY    75  75 100 CALM      30.02R                  
$$

SKY/WX REPORTED AS FAIR MEANS FEW OR NO CLOUDS BELOW
12 THOUSAND FEET.